Lawrence, MA

1:47 PM EST on November 21, 2019 (GMT -0500)
Lawrence Municipal

Weather History for KLWM - August, 2019

Change the Weather History Date:

Friday, August 16, 2019

  Actual Average Record
Temperature  
Mean Temperature 70 °F -  
Max Temperature 80 °F 83 °F 96 °F (1944)
Min Temperature 62 °F 61 °F 50 °F (1972)
Cooling Degree Days 6    
Growing Degree Days 20 (Base 50)    
Moisture  
Dew Point 63 °F    
Average Humidity 85    
Maximum Humidity 100    
Minimum Humidity 56    
Precipitation  
Precipitation 0.00 in - - ()
Sea Level Pressure  
Sea Level Pressure 30.08 in    
Wind  
Wind Speed 3 mph (ESE)    
Max Wind Speed 10 mph    
Max Gust Speed -    
Visibility 7 miles    
Events Fog , Rain    
Averages and records for this station are not official NWS values.
T = Trace of Precipitation, MM = Missing Value Source: NWS Daily Summary

Daily Weather History Graph

Daily Weather History Graph

Search for Another Location

Airport or City:

Astronomy

Aug. 16, 2019 Rise Set
Actual Time 5:51 AM EDT 7:45 PM EDT
Civil Twilight 5:21 AM EDT 8:15 PM EDT
Nautical Twilight 4:44 AM EDT 8:52 PM EDT
Astronomical Twilight 4:03 AM EDT 9:32 PM EDT
Moon 8:42 PM EDT (8/16) 6:40 AM EDT (8/16)
Length of Visible Light 14h 54m
Length of Day
13h 53m
Full, 99% of the Moon is Illuminated
Aug 16
Full
Aug 23
Last Quarter
Aug 30
New
Sep 5
First Quarter
Sep 14
Full

Hourly Weather History & Observations

Time (EDT) Temp. Dew Point Humidity Pressure Visibility Wind Dir Wind Speed Gust Speed Precip Events Conditions
12:54 AM 64.9 °F 62.1 °F 90% 30.09 in 10.0 mi South 4.6 mph - N/A   Overcast
1:17 AM 64.9 °F 63.0 °F 93% 30.09 in 10.0 mi Calm Calm - N/A   Overcast
1:54 AM 64.0 °F 62.1 °F 93% 30.08 in 9.0 mi SSW 3.5 mph - N/A   Overcast
2:02 AM 64.0 °F 63.0 °F 96% 30.08 in 8.0 mi Calm Calm - N/A   Overcast
2:54 AM 64.0 °F 62.1 °F 93% 30.07 in 7.0 mi Calm Calm - N/A   Overcast
3:52 AM 62.6 °F 62.6 °F 100% 30.06 in 4.0 mi Calm Calm - N/A   Mostly Cloudy
3:54 AM 63.0 °F 62.1 °F 97% 30.06 in 4.0 mi Calm Calm - N/A   Mostly Cloudy
4:32 AM 64.0 °F 62.1 °F 93% 30.06 in 6.0 mi Calm Calm - N/A   Overcast
4:54 AM 64.0 °F 63.0 °F 96% 30.07 in 5.0 mi Calm Calm - N/A   Overcast
5:54 AM 64.0 °F 63.0 °F 96% 30.07 in 5.0 mi East 4.6 mph - 0.00 in Rain Light Rain
6:12 AM 64.0 °F 63.0 °F 96% 30.07 in 2.5 mi East 5.8 mph - 0.00 in Rain Light Rain
6:19 AM 64.0 °F 63.0 °F 96% 30.07 in 5.0 mi ESE 3.5 mph - 0.00 in   Overcast
6:50 AM 64.4 °F 62.6 °F 94% 30.08 in 2.0 mi East 4.6 mph - 0.00 in   Overcast
6:54 AM 64.0 °F 63.0 °F 96% 30.08 in 2.0 mi Calm Calm - 0.00 in   Overcast
7:14 AM 64.0 °F 63.0 °F 96% 30.09 in 1.0 mi ESE 3.5 mph - N/A   Overcast
7:20 AM 64.0 °F 63.0 °F 96% 30.09 in 0.5 mi ENE 4.6 mph - N/A Fog Fog
7:54 AM 64.0 °F 63.0 °F 96% 30.10 in 0.5 mi East 3.5 mph - N/A Fog Fog
7:59 AM 64.0 °F 63.0 °F 96% 30.10 in 1.0 mi Calm Calm - N/A   Overcast
8:10 AM 64.9 °F 63.0 °F 93% 30.11 in 3.0 mi NE 4.6 mph - N/A   Overcast
8:34 AM 66.0 °F 63.0 °F 90% 30.10 in 10.0 mi ESE 3.5 mph - N/A   Overcast
8:54 AM 66.0 °F 64.0 °F 93% 30.10 in 3.0 mi SE 3.5 mph - N/A   Overcast
9:22 AM 69.1 °F 63.0 °F 81% 30.11 in 10.0 mi Calm Calm - N/A   Mostly Cloudy
9:36 AM 70.0 °F 63.0 °F 78% 30.10 in 10.0 mi East 4.6 mph - N/A   Partly Cloudy
9:54 AM 71.1 °F 63.0 °F 75% 30.10 in 10.0 mi East 6.9 mph - N/A   Partly Cloudy
10:54 AM 73.0 °F 62.1 °F 68% 30.10 in 10.0 mi East 6.9 mph - N/A   Clear
11:54 AM 77.0 °F 63.0 °F 62% 30.09 in 10.0 mi Variable 5.8 mph - N/A   Clear
12:54 PM 78.1 °F 61.0 °F 56% 30.07 in 10.0 mi Variable 5.8 mph - N/A   Clear
1:54 PM 78.1 °F 64.9 °F 64% 30.08 in 10.0 mi ENE 9.2 mph - N/A   Clear
2:54 PM 79.0 °F 63.0 °F 58% 30.07 in 10.0 mi Variable 4.6 mph - N/A   Partly Cloudy
3:54 PM 78.1 °F 61.0 °F 56% 30.07 in 10.0 mi South 6.9 mph - N/A   Clear
4:54 PM 77.0 °F 60.1 °F 56% 30.07 in 10.0 mi SSE 6.9 mph - N/A   Clear
5:54 PM 75.0 °F 63.0 °F 66% 30.06 in 10.0 mi ESE 10.4 mph - N/A   Clear
6:54 PM 71.1 °F 63.0 °F 75% 30.06 in 10.0 mi ESE 5.8 mph - N/A   Clear
7:54 PM 68.0 °F 62.1 °F 81% 30.07 in 10.0 mi SE 3.5 mph - N/A   Partly Cloudy
8:54 PM 66.9 °F 63.0 °F 87% 30.06 in 10.0 mi Variable 5.8 mph - N/A   Clear
9:28 PM 66.9 °F 63.0 °F 87% 30.09 in 10.0 mi ESE 4.6 mph - N/A   Partly Cloudy
9:54 PM 66.9 °F 63.0 °F 87% 30.09 in 10.0 mi East 4.6 mph - N/A   Scattered Clouds
10:54 PM 66.0 °F 63.0 °F 90% 30.09 in 10.0 mi Calm Calm - N/A   Clear
11:15 PM 66.0 °F 64.0 °F 93% 30.10 in 10.0 mi Calm Calm - N/A   Mostly Cloudy
11:54 PM 66.9 °F 64.0 °F 90% 30.09 in 10.0 mi Calm Calm - N/A   Overcast